period_start,C,m1,H,J0,J1,J2,J3,J4,J5,JA,JB,JC,JD,JJ,JK,JN,#
2018-02-07 00:04:54,0.35,0.48,0.00,17.29,20.18,23.62,14.30,47.75,1021.50,2055.99,3320.78,2986.25,3426.91,599.97,610.59,1.34,0000 0000 0000 0000 000000
2018-02-07 00:09:55,0.35,0.50,0.00,17.29,20.18,23.62,14.33,47.83,1021.51,2055.99,3313.82,2980.86,3420.76,600.30,610.98,1.39,0000 0000 0000 0000 000000
2018-02-07 00:14:57,0.35,0.52,0.00,17.28,20.18,23.61,14.25,47.72,1021.53,2055.98,3306.82,2975.52,3414.62,600.23,611.02,1.44,0000 0000 0000 0000 000000
2018-02-07 00:19:58,0.34,0.53,0.00,17.27,20.19,23.60,14.26,47.79,1021.78,2055.97,3299.93,2970.20,3408.62,599.79,610.70,1.49,0000 0000 0000 0000 000000
2018-02-07 00:24:59,0.35,0.55,0.00,17.27,20.19,23.61,14.34,47.77,1021.95,2055.97,3293.09,2965.04,3402.66,600.28,611.24,1.54,0000 0000 0000 0000 000000
2018-02-07 00:30:01,0.35,0.57,0.00,17.27,20.19,23.63,14.23,47.73,1021.99,2055.97,3286.23,2959.80,3396.65,600.01,610.94,1.59,0000 0000 0000 0000 000000
2018-02-07 00:35:03,0.34,0.59,0.00,17.27,20.19,23.64,14.25,47.72,1021.99,2055.96,3279.43,2954.63,3390.82,600.04,610.96,1.64,0000 0000 0000 0000 000000
2018-02-07 00:40:04,0.35,0.60,0.00,17.29,20.19,23.62,14.24,47.58,1022.00,2055.96,3272.56,2949.48,3385.08,599.64,610.61,1.69,0000 0000 0000 0000 000000
2018-02-07 00:45:05,0.34,0.62,0.00,17.30,20.19,23.62,14.28,47.70,1022.06,2055.97,3265.84,2944.37,3379.24,599.98,611.02,1.74,0000 0000 0000 0000 000000
2018-02-07 00:50:06,0.34,0.64,0.00,17.33,20.19,23.62,14.32,47.72,1022.07,2055.97,3259.23,2939.23,3373.31,600.11,611.10,1.79,0000 0000 0000 0000 000000
2018-02-07 00:55:08,0.34,0.66,0.00,17.33,20.19,23.61,14.23,47.73,1022.38,2055.98,3252.57,2934.16,3367.51,599.88,611.00,1.84,0000 0000 0000 0000 000000
2018-02-07 01:00:09,0.34,0.68,0.00,17.34,20.20,23.64,14.28,47.67,1022.43,2055.96,3245.85,2929.00,3361.66,599.91,611.03,1.89,0000 0000 0000 0000 000000
2018-02-07 01:05:10,0.34,0.69,0.00,17.36,20.21,23.63,14.32,47.67,1022.40,2055.97,3239.25,2924.03,3355.96,600.16,611.13,1.94,0000 0000 0000 0000 000000
2018-02-07 01:10:11,0.32,0.71,0.00,17.38,20.22,23.66,14.25,47.78,1022.43,2055.94,3232.81,2919.12,3350.41,599.94,610.88,1.99,0000 0000 0000 0000 000000
2018-02-07 01:15:12,0.34,0.73,0.00,17.39,20.22,23.66,14.28,47.73,1022.47,2055.97,3226.41,2914.22,3344.76,599.88,610.92,2.04,0000 0000 0000 0000 000000
2018-02-07 01:20:14,0.33,0.74,0.00,17.42,20.24,23.68,14.38,47.82,1022.47,2055.88,3219.93,2909.11,3338.91,600.38,611.37,2.09,0000 0000 0000 0000 000000
2018-02-07 01:25:15,0.32,0.76,0.00,17.44,20.24,23.68,14.23,47.77,1022.48,2055.78,3213.60,2904.28,3333.33,599.95,610.96,2.15,0000 0000 0000 0000 000000
2018-02-07 01:30:17,0.29,0.77,0.00,17.46,20.27,23.71,14.27,47.80,1022.48,2055.34,3207.23,2899.38,3327.75,599.89,610.79,2.20,0000 0000 0000 0000 000000
2018-02-07 01:35:18,0.32,0.79,0.00,17.48,20.27,23.73,14.28,47.77,1022.48,2055.24,3200.99,2894.56,3322.34,600.04,610.94,2.25,0000 0000 0000 0000 000000
2018-02-07 01:40:19,0.30,0.81,0.00,17.49,20.29,23.74,14.29,47.84,1022.48,2055.09,3194.94,2889.84,3316.91,599.91,610.73,2.30,0000 0000 0000 0000 000000
2018-02-07 01:45:20,0.32,0.82,0.00,17.53,20.30,23.75,14.27,47.76,1022.50,2055.04,3188.86,2885.22,3311.57,599.92,610.70,2.35,0000 0000 0000 0000 000000
2018-02-07 01:50:22,0.31,0.84,0.00,17.53,20.32,23.78,14.29,47.80,1022.50,2055.02,3182.89,2880.69,3306.37,599.90,610.60,2.40,0000 0000 0000 0000 000000
2018-02-07 01:55:23,0.31,0.85,0.00,17.55,20.34,23.80,14.29,47.87,1022.51,2055.01,3176.83,2876.20,3301.05,600.14,610.81,2.45,0000 0000 0000 0000 000000
2018-02-07 02:00:24,0.30,0.87,0.00,17.58,20.35,23.82,14.35,47.83,1022.52,2055.00,3171.09,2871.76,3295.86,600.19,610.86,2.50,0000 0000 0000 0000 000000
2018-02-07 02:05:25,0.33,0.89,0.00,17.61,20.37,23.84,14.22,47.80,1022.52,2055.00,3165.13,2867.17,3290.63,599.60,610.20,2.55,0000 0000 0000 0000 000000
2018-02-07 02:10:27,0.32,0.90,0.00,17.62,20.39,23.86,14.28,47.73,1022.51,2054.99,3159.00,2862.50,3285.29,600.02,610.64,2.60,0000 0000 0000 0000 000000
2018-02-07 02:15:28,0.32,0.92,0.00,17.62,20.40,23.87,14.27,47.73,1022.53,2054.98,3152.95,2857.89,3280.04,599.62,610.27,2.65,0000 0000 0000 0000 000000
2018-02-07 02:20:29,0.31,0.93,0.00,17.65,20.42,23.89,14.24,47.84,1022.49,2054.96,3147.13,2853.37,3274.81,599.82,610.47,2.70,0000 0000 0000 0000 000000
2018-02-07 02:25:31,0.31,0.95,0.00,17.67,20.44,23.91,14.30,47.95,1022.52,2054.90,3141.45,2848.90,3269.63,600.19,610.69,2.75,0000 0000 0000 0000 000000
2018-02-07 02:30:32,0.26,0.97,0.00,17.69,20.46,23.94,14.28,47.89,1022.55,2054.56,3135.74,2844.38,3264.46,600.15,610.46,2.80,0000 0000 0000 0000 000000
2018-02-07 02:35:33,0.29,0.98,0.00,17.72,20.48,23.95,14.18,47.84,1022.70,2054.21,3129.97,2839.87,3259.40,599.73,610.21,2.85,0000 0000 0000 0000 000000
2018-02-07 02:40:35,0.30,0.99,0.00,17.72,20.49,23.96,14.33,47.71,1022.75,2054.07,3124.14,2835.42,3254.34,600.15,610.72,2.90,0000 0000 0000 0000 000000
2018-02-07 02:45:36,0.30,1.01,0.00,17.74,20.51,23.99,14.26,47.86,1022.85,2054.02,3118.37,2831.03,3249.37,599.82,610.49,2.95,0000 0000 0000 0000 000000
2018-02-07 02:50:37,0.31,1.03,0.00,17.77,20.53,23.99,14.31,47.74,1022.96,2054.01,3112.63,2826.63,3244.40,600.23,610.86,3.00,0000 0000 0000 0000 000000
2018-02-07 02:55:39,0.31,1.04,0.00,17.80,20.55,24.02,14.25,47.86,1022.96,2054.01,3106.90,2822.21,3239.32,600.07,610.48,3.05,0000 0000 0000 0000 000000
2018-02-07 03:00:40,0.32,1.06,0.00,17.84,20.57,24.04,14.23,47.87,1022.96,2054.00,3101.17,2817.84,3234.25,600.04,610.52,3.10,0000 0000 0000 0000 000000
2018-02-07 03:05:42,0.31,1.07,0.00,17.88,20.59,24.06,14.23,47.83,1022.96,2054.00,3095.39,2813.54,3229.24,599.84,610.15,3.15,0000 0000 0000 0000 000000
2018-02-07 03:10:44,0.30,1.09,0.00,17.91,20.62,24.07,14.29,47.85,1022.99,2053.99,3089.78,2809.22,3224.27,599.98,610.26,3.20,0000 0000 0000 0000 000000
2018-02-07 03:15:45,0.32,1.10,0.00,17.93,20.64,24.09,14.26,47.89,1022.98,2053.98,3084.18,2804.82,3219.22,600.01,610.32,3.25,0000 0000 0000 0000 000000
2018-02-07 03:20:47,0.32,1.12,0.00,17.96,20.67,24.10,14.21,47.83,1022.98,2053.97,3078.49,2800.44,3214.19,599.49,609.64,3.30,0000 0000 0000 0000 000000
2018-02-07 03:25:49,0.30,1.14,0.00,17.98,20.69,24.13,14.33,47.99,1022.99,2053.84,3072.83,2796.03,3209.07,600.35,610.49,3.35,0000 0000 0000 0000 000000
2018-02-07 03:30:50,0.27,1.15,0.00,18.02,20.71,24.15,14.29,47.88,1023.08,2053.25,3067.10,2791.50,3203.84,599.85,609.86,3.40,0000 0000 0000 0000 000000
2018-02-07 03:35:52,0.32,1.17,0.00,18.05,20.73,24.18,14.27,47.92,1023.31,2053.07,3061.15,2786.86,3198.58,600.20,610.40,3.45,0000 0000 0000 0000 000000
2018-02-07 03:40:54,0.34,1.18,0.00,18.08,20.76,24.20,14.25,48.01,1023.42,2053.02,3055.03,2782.14,3193.19,600.06,610.17,3.50,0000 0000 0000 0000 000000
2018-02-07 03:45:56,0.35,1.20,0.00,18.10,20.78,24.22,14.28,47.98,1023.44,2053.00,3048.87,2777.31,3187.66,599.94,610.16,3.55,0000 0000 0000 0000 000000
2018-02-07 03:50:57,0.35,1.22,0.00,18.11,20.80,24.26,14.21,47.70,1023.44,2052.99,3042.66,2772.45,3182.08,599.92,610.15,3.60,0000 0000 0000 0000 000000
2018-02-07 03:55:59,0.34,1.24,0.00,18.13,20.82,24.28,14.34,47.79,1023.45,2052.97,3036.53,2767.76,3176.70,600.25,610.32,3.65,0000 0000 0000 0000 000000
2018-02-07 04:01:01,0.34,1.26,0.00,18.16,20.84,24.31,14.31,47.82,1023.45,2052.96,3030.44,2763.07,3171.29,600.31,610.20,3.70,0000 0000 0000 0000 000000
2018-02-07 04:06:03,0.32,1.27,0.00,18.17,20.87,24.33,14.21,47.63,1023.45,2052.73,3024.39,2758.38,3165.98,599.90,609.89,3.75,0000 0000 0000 0000 000000
2018-02-07 04:11:04,0.29,1.28,0.00,18.20,20.89,24.36,14.31,47.80,1023.47,2052.35,3018.46,2753.81,3160.67,600.22,610.24,3.80,0000 0000 0000 0000 000000
2018-02-07 04:16:06,0.32,1.30,0.00,18.24,20.92,24.38,14.26,47.85,1023.46,2052.09,3012.51,2749.38,3155.37,600.02,609.79,3.85,0000 0000 0000 0000 000000
2018-02-07 04:21:07,0.34,1.32,0.00,18.27,20.94,24.41,14.31,47.85,1023.47,2052.02,3006.65,2744.73,3150.06,600.25,609.91,3.90,0000 0000 0000 0000 000000
2018-02-07 04:26:09,0.35,1.34,0.00,18.28,20.97,24.45,14.31,47.83,1023.48,2052.00,3000.65,2740.01,3144.67,600.02,609.83,3.95,0000 0000 0000 0000 000000
2018-02-07 04:31:11,0.36,1.35,0.00,18.28,21.00,24.49,14.18,47.88,1023.65,2052.00,2994.56,2735.23,3139.13,599.82,609.86,4.00,0000 0000 0000 0000 000000
2018-02-07 04:36:12,0.35,1.37,0.00,18.30,21.04,24.51,14.25,47.92,1023.77,2051.98,2988.41,2730.51,3133.80,599.89,609.81,4.05,0000 0000 0000 0000 000000
2018-02-07 04:41:14,0.34,1.39,0.00,18.33,21.07,24.54,14.26,47.83,1023.81,2051.91,2982.40,2725.79,3128.51,600.16,610.04,4.11,0000 0000 0000 0000 000000
2018-02-07 04:46:15,0.31,1.41,0.00,18.37,21.10,24.58,14.25,47.75,1023.80,2051.52,2976.42,2721.17,3123.19,599.92,609.61,4.16,0000 0000 0000 0000 000000
2018-02-07 04:51:17,0.31,1.42,0.00,18.39,21.13,24.59,14.24,47.77,1023.91,2051.08,2970.45,2716.50,3117.86,599.80,609.56,4.21,0000 0000 0000 0000 000000
2018-02-07 04:56:18,0.35,1.44,0.00,18.40,21.16,24.64,14.35,47.96,1023.93,2051.01,2964.47,2711.81,3112.52,600.16,609.96,4.26,0000 0000 0000 0000 000000
2018-02-07 05:01:19,0.35,1.46,0.00,18.41,21.18,24.66,14.35,47.83,1023.94,2051.00,2958.49,2707.21,3107.14,600.31,610.10,4.31,0000 0000 0000 0000 000000
2018-02-07 05:06:21,0.35,1.48,0.00,18.41,21.21,24.69,14.24,47.88,1023.94,2051.00,2952.52,2702.61,3101.85,600.18,609.91,4.36,0000 0000 0000 0000 000000
2018-02-07 05:11:22,0.36,1.49,0.00,18.41,21.23,24.73,14.21,47.73,1023.94,2050.99,2946.52,2697.89,3096.47,599.85,609.68,4.41,0000 0000 0000 0000 000000
2018-02-07 05:16:23,0.34,1.51,0.00,18.47,21.26,24.75,14.32,47.85,1023.94,2050.97,2940.71,2693.38,3091.26,600.02,609.67,4.46,0000 0000 0000 0000 000000
2018-02-07 05:21:25,0.34,1.53,0.00,18.48,21.29,24.77,14.20,47.82,1023.94,2050.96,2935.02,2688.96,3086.16,599.68,609.39,4.51,0000 0000 0000 0000 000000
2018-02-07 05:26:26,0.31,1.54,0.00,18.48,21.31,24.78,14.21,47.90,1023.94,2050.69,2929.15,2684.48,3080.87,599.81,609.52,4.56,0000 0000 0000 0000 000000
2018-02-07 05:31:28,0.30,1.56,0.00,18.50,21.33,24.81,14.19,47.94,1023.94,2050.30,2923.40,2680.05,3075.80,600.07,609.69,4.61,0000 0000 0000 0000 000000
2018-02-07 05:36:29,0.32,1.58,0.00,18.53,21.36,24.84,14.25,47.86,1023.94,2050.08,2917.76,2675.70,3070.97,599.69,609.20,4.66,0000 0000 0000 0000 000000
2018-02-07 05:41:30,0.33,1.59,0.00,18.61,21.39,24.88,14.25,47.76,1023.94,2050.02,2912.30,2671.44,3066.14,600.09,609.46,4.71,0000 0000 0000 0000 000000
2018-02-07 05:46:31,0.33,1.61,0.00,18.63,21.41,24.90,14.19,47.77,1023.95,2050.00,2906.81,2667.13,3061.05,599.87,609.35,4.76,0000 0000 0000 0000 000000
2018-02-07 05:51:33,0.33,1.63,0.00,18.66,21.44,24.92,14.35,47.61,1023.94,2050.00,2901.26,2662.86,3056.10,599.73,609.03,4.81,0000 0000 0000 0000 000000
2018-02-07 05:56:34,0.32,1.64,0.00,18.72,21.47,24.94,14.20,47.42,1023.98,2049.98,2895.99,2658.56,3051.08,600.00,609.15,4.86,0000 0000 0000 0000 000000
2018-02-07 06:01:35,0.31,1.66,0.00,18.79,21.49,24.96,14.21,47.48,1024.08,2049.85,2890.56,2654.31,3046.15,600.04,609.22,4.91,0000 0000 0000 0000 000000
2018-02-07 06:06:37,0.29,1.68,0.00,18.84,21.52,24.96,14.22,47.47,1024.07,2049.50,2884.96,2649.98,3041.31,600.23,609.16,4.96,0000 0000 0000 0000 000000
2018-02-07 06:11:38,0.33,1.69,0.00,18.89,21.54,24.99,14.28,47.61,1024.03,2049.15,2879.45,2645.64,3036.23,600.05,608.81,5.01,0000 0000 0000 0000 000000
2018-02-07 06:16:39,0.33,1.71,0.00,18.93,21.57,25.01,14.16,47.38,1024.00,2049.04,2874.13,2641.41,3031.26,599.89,608.61,5.06,0000 0000 0000 0000 000000
2018-02-07 06:21:40,0.35,1.72,0.00,19.00,21.59,25.04,14.25,47.45,1023.98,2049.02,2868.48,2637.06,3026.37,599.87,608.41,5.11,0000 0000 0000 0000 000000
2018-02-07 06:26:42,0.33,1.74,0.00,19.00,21.61,25.05,14.14,47.39,1024.14,2049.00,2862.94,2632.75,3021.40,599.84,608.47,5.16,0000 0000 0000 0000 000000
2018-02-07 06:31:43,0.34,1.76,0.00,19.00,21.63,25.08,14.20,47.52,1024.21,2048.99,2857.40,2628.48,3016.56,599.85,608.59,5.21,0000 0000 0000 0000 000000
2018-02-07 06:36:44,0.34,1.77,0.00,19.03,21.65,25.10,14.15,47.65,1024.38,2048.98,2851.90,2624.24,3011.60,600.01,608.89,5.26,0000 0000 0000 0000 000000
2018-02-07 06:41:46,0.34,1.79,0.00,19.07,21.67,25.12,14.22,47.65,1024.43,2048.98,2846.33,2620.11,3006.85,600.12,608.82,5.31,0000 0000 0000 0000 000000
2018-02-07 06:46:47,0.33,1.81,0.00,19.09,21.69,25.15,14.23,47.90,1024.43,2048.80,2840.72,2615.77,3001.93,600.19,608.96,5.36,0000 0000 0000 0000 000000
2018-02-07 06:51:48,0.31,1.82,0.00,19.12,21.71,25.18,14.33,47.92,1024.43,2048.27,2835.11,2611.36,2996.84,600.01,608.54,5.41,0000 0000 0000 0000 000000
2018-02-07 06:56:50,0.33,1.84,0.00,19.10,21.73,25.21,14.31,47.96,1024.45,2048.11,2829.54,2606.96,2991.81,600.15,608.78,5.46,0000 0000 0000 0000 000000
2018-02-07 07:01:50,0.36,1.86,0.00,19.11,21.75,25.23,14.30,47.63,1024.46,2048.02,2823.86,2602.53,2986.73,600.34,608.98,5.51,0000 0000 0000 0000 000000
2018-02-07 07:06:51,0.36,1.88,0.00,19.09,21.77,25.27,14.24,47.58,1024.46,2048.01,2818.14,2598.07,2981.62,600.08,608.67,5.56,0000 0000 0000 0000 000000
2018-02-07 07:11:53,0.36,1.90,0.00,19.09,21.79,25.31,14.17,47.45,1024.71,2048.00,2812.59,2593.61,2976.45,599.95,608.84,5.61,0000 0000 0000 0000 000000
2018-02-07 07:16:54,0.36,1.91,0.00,19.08,21.82,25.32,14.15,47.31,1024.84,2047.98,2806.98,2589.19,2971.33,599.84,608.76,5.66,0000 0000 0000 0000 000000
2018-02-07 07:21:55,0.36,1.93,0.00,19.08,21.84,25.33,14.19,47.60,1024.90,2047.93,2801.31,2584.73,2966.23,599.81,608.87,5.71,0000 0000 0000 0000 000000
2018-02-07 07:26:56,0.32,1.95,0.00,19.07,21.86,25.36,14.35,47.84,1024.92,2047.59,2795.55,2580.26,2961.11,600.54,609.47,5.76,0000 0000 0000 0000 000000
2018-02-07 07:31:58,0.34,1.96,0.00,19.06,21.88,25.37,14.23,47.88,1024.92,2047.16,2789.84,2575.81,2955.98,599.85,608.88,5.81,0000 0000 0000 0000 000000
2018-02-07 07:36:59,0.35,1.98,0.00,19.05,21.90,25.39,14.32,47.86,1024.92,2047.04,2784.09,2571.36,2950.96,600.01,609.04,5.86,0000 0000 0000 0000 000000
2018-02-07 07:42:01,0.36,2.00,0.00,19.04,21.92,25.42,14.16,47.68,1024.92,2047.03,2778.53,2566.95,2945.85,599.59,608.52,5.91,0000 0000 0000 0000 000000
2018-02-07 07:47:02,0.36,2.02,0.00,19.03,21.94,25.45,14.24,47.64,1024.92,2047.00,2772.76,2562.49,2940.80,599.85,608.83,5.96,0000 0000 0000 0000 000000
2018-02-07 07:52:03,0.37,2.04,0.00,19.04,21.95,25.45,14.22,47.65,1024.92,2047.00,2767.05,2558.14,2935.56,599.76,608.81,6.01,0000 0000 0000 0000 000000
2018-02-07 07:57:05,0.39,2.06,0.00,19.03,21.97,25.48,14.25,47.64,1024.94,2047.00,2761.03,2553.56,2930.23,600.17,609.25,6.06,0000 0000 0000 0000 000000
2018-02-07 08:02:06,0.39,2.08,0.00,19.02,21.99,25.50,14.24,47.51,1024.92,2047.00,2754.90,2548.85,2924.99,600.03,609.15,6.11,0000 0000 0000 0000 000000
2018-02-07 08:07:07,0.38,2.10,0.00,19.01,22.00,25.50,14.17,47.56,1024.94,2047.00,2749.16,2544.21,2919.71,599.83,608.89,6.16,0000 0000 0000 0000 000000
2018-02-07 08:12:09,0.36,2.12,0.00,19.02,22.02,25.51,14.23,47.48,1024.99,2047.00,2743.77,2539.89,2914.64,599.97,609.11,6.21,0000 0000 0000 0000 000000
2018-02-07 08:17:10,0.38,2.14,0.00,19.02,22.03,25.52,14.29,47.62,1025.10,2047.00,2738.16,2535.46,2909.48,600.38,609.54,6.26,0000 0000 0000 0000 000000
2018-02-07 08:22:11,0.39,2.15,0.00,19.02,22.04,25.54,14.24,47.79,1025.14,2046.98,2732.16,2530.83,2904.20,599.75,608.99,6.31,0000 0000 0000 0000 000000
2018-02-07 08:27:13,0.39,2.17,0.00,19.02,22.05,25.55,14.31,47.73,1025.14,2046.97,2726.26,2526.23,2898.95,599.98,609.25,6.36,0000 0000 0000 0000 000000
2018-02-07 08:32:14,0.38,2.19,0.00,19.03,22.07,25.57,14.33,47.64,1025.34,2046.91,2720.41,2521.70,2893.82,599.97,609.21,6.41,0000 0000 0000 0000 000000
2018-02-07 08:37:15,0.38,2.21,0.00,19.03,22.07,25.57,14.17,47.77,1025.40,2046.84,2714.63,2517.23,2888.72,599.55,608.89,6.47,0000 0000 0000 0000 000000
2018-02-07 08:42:16,0.33,2.23,0.00,19.03,22.08,25.57,14.28,47.71,1025.40,2046.55,2708.90,2512.81,2883.61,600.10,609.39,6.52,0000 0000 0000 0000 000000
2018-02-07 08:47:17,0.36,2.25,0.00,19.01,22.09,25.58,14.33,47.78,1025.40,2046.38,2703.18,2508.40,2878.75,599.79,609.10,6.57,0000 0000 0000 0000 000000
2018-02-07 08:52:19,0.36,2.27,0.00,19.00,22.09,25.59,14.32,47.74,1025.40,2046.16,2697.39,2503.93,2873.80,600.00,609.42,6.62,0000 0000 0000 0000 000000
2018-02-07 08:57:20,0.38,2.29,0.00,19.01,22.12,25.59,14.23,47.71,1025.41,2046.09,2691.47,2499.49,2868.80,600.02,609.32,6.67,0000 0000 0000 0000 000000
2018-02-07 09:02:21,0.36,2.31,0.00,19.00,22.12,25.59,14.27,47.70,1025.42,2046.05,2686.00,2495.25,2863.78,599.78,609.20,6.72,0000 0000 0000 0000 000000
2018-02-07 09:07:22,0.41,2.33,0.00,19.00,22.13,25.60,14.24,47.66,1025.42,2046.03,2679.91,2490.73,2858.53,599.83,609.38,6.77,0000 0000 0000 0000 000000
2018-02-07 09:12:23,0.45,2.35,0.00,19.01,22.14,25.60,14.29,47.82,1025.44,2046.02,2673.03,2485.68,2852.75,599.99,609.37,6.82,0000 0000 0000 0000 000000
2018-02-07 09:17:25,0.44,2.37,0.00,19.02,22.14,25.61,14.33,47.79,1025.51,2046.02,2666.34,2480.82,2847.17,600.31,609.75,6.87,0000 0000 0000 0000 000000
2018-02-07 09:22:26,0.45,2.39,0.00,19.01,22.15,25.61,14.23,47.65,1025.72,2046.01,2659.51,2475.66,2841.18,599.91,609.43,6.92,0000 0000 0000 0000 000000
2018-02-07 09:27:27,0.46,2.42,0.00,19.00,22.17,25.62,14.34,47.69,1025.82,2046.00,2652.70,2470.66,2835.55,600.39,610.00,6.97,0000 0000 0000 0000 000000
2018-02-07 09:32:28,0.43,2.44,0.00,19.00,22.17,25.62,14.25,47.66,1025.89,2046.00,2646.14,2465.72,2829.85,600.07,609.84,7.02,0000 0000 0000 0000 000000
2018-02-07 09:37:29,0.49,2.46,0.00,19.00,22.17,25.62,14.26,47.83,1025.89,2046.00,2638.95,2460.46,2823.96,600.03,609.78,7.07,0000 0000 0000 0000 000000
2018-02-07 09:42:31,0.49,2.49,0.00,18.97,22.18,25.63,14.29,47.72,1025.89,2045.99,2631.48,2454.94,2817.73,599.91,609.67,7.12,0000 0000 0000 0000 000000
2018-02-07 09:47:32,0.39,2.51,0.00,18.96,22.19,25.64,14.28,47.74,1025.89,2045.99,2625.67,2450.34,2812.32,600.09,609.79,7.17,0000 0000 0000 0000 000000
2018-02-07 09:52:34,0.40,2.53,0.00,18.96,22.19,25.65,14.27,47.67,1025.90,2045.98,2619.95,2445.87,2807.27,599.96,609.76,7.22,0000 0000 0000 0000 000000
2018-02-07 09:57:35,0.38,2.55,0.00,18.96,22.19,25.65,14.19,47.77,1025.92,2045.98,2614.46,2441.62,2802.45,599.64,609.45,7.27,0000 0000 0000 0000 000000
2018-02-07 10:02:37,0.38,2.57,0.00,18.98,22.19,25.63,14.28,47.68,1025.96,2045.96,2609.05,2437.39,2797.57,600.23,610.07,7.32,0000 0000 0000 0000 000000
2018-02-07 10:07:38,0.36,2.59,0.00,18.96,22.19,25.64,14.21,47.72,1025.99,2045.79,2603.56,2433.13,2792.62,600.10,609.95,7.37,0000 0000 0000 0000 000000
2018-02-07 10:12:39,0.38,2.60,0.00,18.97,22.19,25.65,14.41,47.98,1026.01,2045.63,2597.97,2428.92,2787.78,600.41,610.27,7.42,0000 0000 0000 0000 000000
2018-02-07 10:17:40,0.50,2.63,0.00,18.96,22.19,25.67,14.19,48.01,1026.14,2045.83,2591.32,2424.12,2782.38,599.94,609.92,7.47,0000 0000 0000 0000 000000
2018-02-07 10:22:42,0.50,2.65,0.00,18.95,22.19,25.65,14.24,48.07,1026.25,2045.81,2583.85,2418.68,2776.18,600.11,610.06,7.52,0000 0000 0000 0000 000000
2018-02-07 10:27:43,0.55,2.68,0.00,18.94,22.19,25.64,14.38,48.01,1026.30,2045.69,2575.74,2412.82,2769.43,600.04,610.17,7.57,0000 0000 0000 0000 000000
2018-02-07 10:32:44,0.51,2.71,0.00,18.93,22.19,25.65,14.34,47.92,1026.29,2045.75,2568.08,2407.32,2763.18,599.96,610.00,7.62,0000 0000 0000 0000 000000
2018-02-07 10:37:46,0.51,2.73,0.00,18.91,22.20,25.63,14.33,47.98,1026.36,2045.82,2560.74,2401.96,2756.99,600.09,610.21,7.67,0000 0000 0000 0000 000000
2018-02-07 10:42:47,0.43,2.76,0.00,18.90,22.20,25.64,14.26,47.96,1026.37,2045.71,2554.43,2397.05,2751.48,599.84,610.02,7.72,0000 0000 0000 0000 000000
2018-02-07 10:47:48,0.40,2.78,0.00,18.90,22.21,25.63,14.27,47.91,1026.38,2045.33,2547.98,2392.22,2746.01,599.78,609.99,7.77,0000 0000 0000 0000 000000
2018-02-07 10:52:49,0.45,2.80,0.00,18.91,22.22,25.64,14.32,47.98,1026.38,2045.17,2541.64,2387.50,2740.50,600.22,610.37,7.82,0000 0000 0000 0000 000000
2018-02-07 10:57:51,0.48,2.82,0.00,18.92,22.22,25.63,14.32,47.99,1026.38,2045.13,2534.90,2382.57,2734.99,599.94,610.04,7.87,0000 0000 0000 0000 000000
2018-02-07 11:02:52,0.46,2.85,0.00,18.90,22.22,25.63,14.24,48.04,1026.38,2045.08,2528.43,2377.65,2729.25,599.90,610.19,7.92,0000 0000 0000 0000 000000
2018-02-07 11:07:53,0.49,2.87,0.00,18.89,22.22,25.63,14.30,47.95,1026.38,2045.05,2521.66,2372.62,2723.51,600.28,610.50,7.97,0000 0000 0000 0000 000000
2018-02-07 11:12:55,0.50,2.89,0.00,18.89,22.21,25.63,14.30,48.16,1026.38,2045.06,2514.50,2367.52,2717.63,600.02,610.25,8.02,0000 0000 0000 0000 000000
2018-02-07 11:17:56,0.52,2.92,0.00,18.88,22.20,25.62,14.29,48.22,1026.38,2045.09,2507.30,2362.29,2711.48,600.26,610.47,8.07,0000 0000 0000 0000 000000
2018-02-07 11:22:58,0.47,2.95,0.00,18.87,22.20,25.62,14.18,48.06,1026.39,2045.06,2500.82,2357.26,2705.56,599.80,610.08,8.12,0000 0000 0000 0000 000000
2018-02-07 11:27:59,0.47,2.97,0.00,18.85,22.19,25.64,14.33,48.02,1026.39,2045.03,2494.35,2352.36,2700.00,600.13,610.45,8.17,0000 0000 0000 0000 000000
2018-02-07 11:33:00,0.49,3.00,0.00,18.85,22.19,25.62,14.22,48.13,1026.40,2045.04,2487.76,2347.35,2694.36,599.60,609.84,8.22,0000 0000 0000 0000 000000
2018-02-07 11:38:02,0.49,3.02,0.00,18.84,22.19,25.61,14.29,48.15,1026.41,2045.04,2481.08,2342.41,2688.74,599.74,610.21,8.27,0000 0000 0000 0000 000000
2018-02-07 11:43:03,0.46,3.04,0.00,18.84,22.19,25.62,14.27,48.25,1026.40,2045.03,2474.59,2337.60,2683.44,600.26,610.54,8.32,0000 0000 0000 0000 000000
2018-02-07 11:48:04,0.42,3.07,0.00,18.83,22.18,25.61,14.30,48.25,1026.40,2045.06,2468.92,2333.25,2678.58,599.94,610.30,8.37,0000 0000 0000 0000 000000
2018-02-07 11:53:06,0.40,3.09,0.00,18.83,22.17,25.61,14.24,48.44,1026.40,2045.09,2463.50,2329.10,2673.92,599.94,610.33,8.42,0000 0000 0000 0000 000000
2018-02-07 11:58:07,0.44,3.11,0.00,18.81,22.17,25.59,14.37,48.52,1026.42,2045.08,2457.80,2324.76,2668.92,600.27,610.66,8.47,0000 0000 0000 0000 000000
2018-02-07 12:03:08,0.45,3.13,0.00,18.80,22.17,25.60,14.26,48.47,1026.46,2045.07,2451.89,2320.29,2663.75,599.85,610.28,8.52,0000 0000 0000 0000 000000
2018-02-07 12:08:10,0.41,3.15,0.00,18.79,22.17,25.58,14.30,48.38,1026.45,2045.08,2446.24,2316.01,2658.90,599.90,610.33,8.57,0000 0000 0000 0000 000000
2018-02-07 12:13:11,0.43,3.17,0.00,18.78,22.17,25.58,14.37,48.36,1026.57,2045.11,2440.76,2311.82,2654.05,600.13,610.70,8.62,0000 0000 0000 0000 000000
2018-02-07 12:18:12,0.44,3.20,0.00,18.80,22.17,25.58,14.33,48.29,1026.68,2045.10,2435.23,2307.46,2648.92,600.06,610.64,8.67,0000 0000 0000 0000 000000
2018-02-07 12:23:13,0.45,3.22,0.00,18.78,22.17,25.59,14.31,48.31,1026.81,2045.04,2429.32,2302.94,2643.64,600.00,610.58,8.72,0000 0000 0000 0000 000000
2018-02-07 12:28:14,0.42,3.24,0.00,18.77,22.17,25.57,14.36,48.29,1026.76,2045.02,2423.72,2298.69,2638.62,600.08,610.79,8.78,0000 0000 0000 0000 000000
2018-02-07 12:33:16,0.41,3.26,0.00,18.78,22.17,25.59,14.30,48.23,1026.73,2045.01,2418.43,2294.59,2633.84,599.86,610.52,8.83,0000 0000 0000 0000 000000
2018-02-07 12:38:17,0.39,3.28,0.00,18.80,22.16,25.57,14.28,48.17,1026.81,2045.00,2413.30,2290.61,2629.29,600.01,610.72,8.88,0000 0000 0000 0000 000000
2018-02-07 12:43:18,0.39,3.30,0.00,18.78,22.15,25.57,14.32,48.08,1026.85,2045.00,2408.38,2286.79,2624.88,599.90,610.62,8.93,0000 0000 0000 0000 000000
2018-02-07 12:48:20,0.38,3.32,0.00,18.77,22.14,25.56,14.35,48.22,1026.86,2045.00,2403.41,2282.95,2620.73,599.82,610.66,8.98,0000 0000 0000 0000 000000
2018-02-07 12:53:21,0.38,3.34,0.00,18.76,22.14,25.57,14.36,48.35,1026.87,2045.00,2398.39,2279.18,2616.50,600.05,610.79,9.03,0000 0000 0000 0000 000000
2018-02-07 12:58:22,0.38,3.36,0.00,18.75,22.12,25.55,14.33,48.27,1026.87,2045.00,2393.45,2275.41,2612.26,600.14,610.96,9.08,0000 0000 0000 0000 000000
2018-02-07 13:03:24,0.37,3.38,0.00,18.74,22.12,25.54,14.36,48.23,1026.87,2045.02,2388.67,2271.76,2608.12,600.33,611.08,9.13,0000 0000 0000 0000 000000